Location: Isle of Man Observatory
(54.1776°N, 4.6264°W)
Time: 22:26:33
(UTC+01:00)

N. Korean satellite - Visible Passes

Search period start: 21 February 2018 00:00
Search period end: 03 March 2018 00:00
Orbit: 459 x 514 km, 97.2° (Epoch: 21 February)

Date Brightness Start Highest point End Pass type
(mag) Time Alt. Az. Time Alt. Az. Time Alt. Az.
21 Feb 9.9 20:09:07 10° SW 20:11:23 16° W 20:13:41 10° NW visible
22 Feb 9.1 07:28:06 10° NE 07:31:19 28° E 07:34:32 10° SSE visible
22 Feb 9.0 19:44:24 10° SSW 19:47:25 27° W 19:50:31 10° NW visible
23 Feb 10.0 07:04:54 10° NE 07:07:23 17° E 07:09:53 10° SE visible
23 Feb 7.7 19:20:11 10° S 19:23:33 49° W 19:27:01 10° NNW visible
24 Feb 10.7 06:42:57 10° ENE 06:43:22 10° E 06:43:47 10° E visible
25 Feb 9.9 20:07:29 10° SW 20:09:51 17° W 20:12:14 10° NW visible
26 Feb 9.2 07:26:35 10° NE 07:29:49 27° E 07:33:02 10° SSE visible
26 Feb 8.9 19:42:49 10° SSW 19:45:53 28° W 19:49:02 10° NNW visible
27 Feb 10.1 07:03:23 10° NE 07:05:51 17° E 07:08:21 10° SE visible
28 Feb 10.8 06:41:43 10° E 06:41:50 10° E 06:41:57 10° E visible
28 Feb 10.5 20:31:42 10° W 20:32:19 10° W 20:32:55 10° WNW visible
01 Mar 9.9 20:05:48 10° SW 20:08:16 18° W 20:10:46 10° NW visible
02 Mar 9.3 07:25:01 10° NE 07:28:15 27° E 07:31:29 10° SSE visible
02 Mar 8.9 19:41:10 10° SSW 19:44:18 30° W 19:47:31 10° NNW visible
